This is the latest recevied weather packets stored in our database for station/object N2RDT. If no packets are shown the sender has not sent any weather packets the latest 10 day(s).
| Time | Temp. | Humidity | Pressure | Rain* | Wind** | Luminosity | Snow |
|---|---|---|---|---|---|---|---|
| 1777377824 | 11.11° C | 76% | 1025.3 hPa | 0 mm | - | 138 W/m² | - |
| 1777377523 | 10.56° C | 79% | 1025.2 hPa | 0 mm | - | 150 W/m² | - |
| 1777377219 | 10.56° C | 78% | 1025 hPa | 0 mm | - | 136 W/m² | - |
| 1777376917 | 10.56° C | 81% | 1025.1 hPa | 0 mm | - | 112 W/m² | - |
| 1777376613 | 10° C | 84% | 1024.9 hPa | 0 mm | - | 104 W/m² | - |
| 1777376311 | 9.44° C | 87% | 1024.5 hPa | 0 mm | - | 100 W/m² | - |
| 1777376006 | 8.89° C | 89% | 1024.3 hPa | 0 mm | - | 90 W/m² | - |
| 1777375705 | 8.33° C | 93% | 1024.2 hPa | 0 mm | - | 77 W/m² | - |
| 1777375400 | 7.78° C | 95% | 1023.8 hPa | 0 mm | - | 72 W/m² | - |
| 1777375098 | 7.22° C | 95% | 1023.6 hPa | 0 mm | - | 65 W/m² | - |
| 1777374797 | 7.22° C | 96% | 1023.1 hPa | 0 mm | - | 61 W/m² | - |
| 1777374493 | 6.67° C | 96% | 1023.2 hPa | 0 mm | - | 51 W/m² | - |
| 1777374191 | 6.67° C | 96% | 1023.1 hPa | 0 mm | - | 44 W/m² | - |
| 1777373886 | 6.11° C | 95% | 1023 hPa | 0 mm | - | 35 W/m² | - |
| 1777373584 | 6.11° C | 95% | 1022.9 hPa | 0 mm | - | 28 W/m² | - |
| 1777373280 | 6.11° C | 95% | 1022.9 hPa | 0 mm | - | 17 W/m² | - |
| 1777372975 | 6.11° C | 95% | 1022.8 hPa | 0 mm | - | 13 W/m² | - |
| 1777372670 | 5.56° C | 95% | 1022.4 hPa | 0 mm | - | 6 W/m² | - |
| 1777372370 | 5.56° C | 95% | 1022.3 hPa | 0 mm | - | 6 W/m² | - |
| 1777372068 | 6.11° C | 95% | 1022.3 hPa | 0 mm | - | 4 W/m² | - |
| 1777371764 | 6.11° C | 95% | 1022.1 hPa | 0 mm | - | 2 W/m² | - |
| 1777371461 | 6.11° C | 95% | 1022.3 hPa | 0 mm | - | 1 W/m² | - |
| 1777371157 | 6.11° C | 94% | 1022.1 hPa | 0 mm | - | 0 W/m² | - |
| 1777370854 | 6.11° C | 94% | 1022 hPa | 0 mm | - | 0 W/m² | - |
| 1777370550 | 6.11° C | 94% | 1022 hPa | 0 mm | - | 0 W/m² | - |
* Rain latest hour (hover to see other rain measurements)
** Current wind speed in m/s (hover to see current wind gust speed)